User: anonymous   Login
Location: Bangkok
(13.7500°N, 100.5170°E)
Time: 04:41:45
(UTC+07:00)
Language:

Cosmos 1802 Rocket - Orbit

View from above orbital plane
View from above orbital plane
View from above satellite
View from above satellite

Ground track
Ground track

The orbit data is extracted from the following two-line orbital elements,

1 17160U 86093B   15244.97452566 +.00000029 +00000-0 +14861-4 0  9996
2 17160 082.9295 189.6139 0039037 169.6364 257.6139 13.74558209442722
Epoch (UTC): 01 September 2015 23:23:19
Eccentricity: 0.0039037
inclination: 82.9295°
perigee height: 954 km
apogee height: 1012 km
right ascension of ascending node: 189.6139°
argument of perigee: 169.6364°
revolutions per day: 13.74558209
mean anomaly at epoch: 257.6139°
orbit number at epoch: 44272

The dashed part of the orbit path shows where the satellite is in the earth's shadow,  

DLR